Location: Amsterdam
(30.7274°N, 84.4357°W)
Time: 01:01:42
(UTC+00:00)

Tiros 1 - Pass Details

Date: 16 February 2026
Orbit: 618 x 649 km, 48.4° (Epoch: 10 March)

Event Time Altitude Azimuth Distance (km) Brightness Sun altitude
Rises 14:05:54 0° 238° (WSW) 2,910 10.2 20.9°
Reaches altitude 10° 14:08:15 10° 242° (WSW) 1,999 9.4 21.3°
Maximum altitude 14:12:47 58° 322° (NW) 727 7.4 22.1°
Drops below altitude 10° 14:17:18 10° 41° (NE) 1,988 9.9 23.0°
Sets 14:19:38 0° 46° (NE) 2,893 10.7 23.4°
